[[{"header":{"parameterUnit":"m.s-1","parameterCategory":1,"la1":30.2991,"la2":30.254,"lo1":-89.0895,"lo2":-89.0444,"dy":0.0017,"dx":0.0017,"nx":28,"ny":28,"refTime":"2023-04-30T15:00:00:Z","depth":0,"parameterNumber":2,"parameterNumberName":"U-component_of_WINDS"},"data":[0,0,0,0,0,0,0,0,0,0,0,0,0,0,0,0,0,0,0,0,0,0,0,0,0,0,0,0,0,0,0,0,0,0,0,0,0,0,0,0,0,0,0,0,0,0,0,0,0,0,0,0,0,0,0,0,0,0,5.1255,5.1257,0,5.1428,5.143,5.1432,5.1342,5.1338,5.1333,5.1329,5.1511,5.152,5.1529,0,0,0,0,0,0,0,0,0,0,0,0,0,5.0853,5.086,5.1255,5.1257,5.126,5.1428,5.143,5.1433,5.1343,5.1338,5.1332,5.1327,5.1508,5.1519,5.153,0,0,0,0,0,0,0,0,0,0,0,0,0,5.1027,5.0863,5.1255,5.1235,5.1235,5.1428,5.1431,5.1433,5.1344,5.1337,5.133,5.1324,5.1505,5.1518,5.1532,5.1755,0,0,5.1574,5.158,0,0,0,0,0,0,0,0,5.1017,5.1042,5.1236,5.1237,5.1237,5.1357,5.1355,5.1542,5.1346,5.1303,5.1329,5.1321,5.1466,5.1482,5.153,5.1764,5.1772,5.1575,5.1583,5.1589,5.1593,0,0,0,0,0,0,0,5.1005,5.1034,5.1324,5.1239,5.124,5.1219,5.1236,5.139,5.1421,5.1306,5.13,5.1322,5.1465,5.1517,5.1534,5.1774,5.1574,5.1587,5.1595,5.16,5.2201,5.2209,0,0,0,0,0,0,5.0993,5.1024,5.1318,5.1329,5.1108,5.1232,5.1251,5.1325,5.1419,5.1427,5.1327,5.1317,5.1497,5.1518,5.154,5.1808,5.1589,5.1602,5.161,5.2194,5.2203,5.2211,0,0,0,0,0,0,5.0985,5.102,5.1311,5.1175,5.1211,5.1246,5.133,5.1332,5.1384,5.1435,5.1441,5.1375,5.1492,5.152,5.1702,5.1813,5.1608,5.1621,5.2185,5.2197,5.2207,5.2347,0,0,0,0,0,0,5.0974,5.1018,5.1102,5.1178,5.1218,5.147,5.1337,5.1341,5.1408,5.1396,5.1481,5.1489,5.1489,5.1682,5.1716,5.1829,5.1631,5.2175,5.219,5.2204,5.2333,5.2362,5.2387,0,0,0,0,0,5.096,5.1135,5.1107,5.1143,5.1324,5.1476,5.15,5.1495,5.1417,5.1503,5.1536,5.1486,5.1796,5.1702,5.1739,5.1857,5.2168,5.2186,5.2203,5.232,5.2356,5.2386,0,0,0,0,0,0,5.1074,5.1145,5.1114,5.1319,5.1392,5.1461,5.1568,5.1533,5.1631,5.1616,5.1607,5.1627,5.1816,5.1855,5.1749,5.2079,5.197,5.1996,5.2047,5.2081,5.2108,5.2095,5.1643,0,0,0,0,0,5.1122,5.1238,5.1295,5.1471,5.1509,5.1533,5.1599,5.1589,5.1665,5.1696,5.1742,5.1819,5.1934,5.201,5.2118,5.2338,5.2356,5.2438,5.2465,5.2487,5.2509,5.2629,5.2667,5.2268,5.2268,5.2268,0,0,5.1225,5.1278,5.1352,5.1495,5.155,5.1672,5.1559,5.1693,5.1784,5.1717,5.1891,5.1928,5.2013,5.2215,5.2307,5.2253,5.2623,5.2509,5.2526,5.2537,5.2651,5.2689,5.2722,5.228,5.2278,5.2276,0,0,5.1473,5.1525,5.1677,5.1734,5.1819,5.1834,5.1871,5.1946,5.1967,5.2141,5.2093,5.2202,5.24,5.2463,5.2521,5.2795,5.2753,5.2831,5.2973,5.309,5.3121,5.3149,5.3247,5.3283,5.2853,5.2853,5.2853,0,5.159,5.177,5.176,5.1898,5.1962,5.1906,5.2061,5.2118,5.2235,5.2282,5.222,5.2467,5.2521,5.2737,5.2804,5.2853,5.2895,5.2821,5.3117,5.3145,5.3171,5.3265,5.3301,5.2862,5.2861,5.286,5.2859,0,5.191,5.2036,5.2149,5.2261,5.2339,5.2485,5.2499,5.2579,5.2563,5.2585,5.2764,5.2826,5.2946,5.2997,5.2983,5.3212,5.3177,5.3117,5.3007,5.3218,5.3306,5.3341,5.2875,5.2871,5.2869,5.2867,0,0,5.2235,5.234,5.2381,5.2432,5.2522,5.262,5.2764,5.288,5.295,5.3033,5.3154,5.3323,5.3268,5.3334,5.3327,5.343,5.3644,5.3357,5.3359,5.3409,5.3901,5.3946,5.3987,5.3616,5.3623,5.3629,5.3894,0,5.249,5.2739,5.2735,5.2967,5.3084,5.3033,5.3158,5.3228,5.3253,5.3357,5.3385,5.3505,5.3423,5.3463,5.3562,5.3596,5.3742,5.3577,5.3731,5.3737,5.3711,5.4033,5.4081,5.4328,5.3928,5.3934,5.3938,0,5.282,5.2912,5.3156,5.3229,5.3278,5.3391,5.3498,5.3597,5.3676,5.3687,5.3762,5.3738,5.3887,5.3772,5.3977,5.3865,5.3928,5.3955,5.3964,5.3979,5.385,5.4057,5.4406,5.4444,5.3992,5.3988,5.3984,0,5.3033,5.3219,5.3388,5.3434,5.3523,5.3604,5.3645,5.3717,5.3787,5.3881,5.3927,5.4038,5.4098,5.4185,5.4194,5.4109,5.4401,5.4287,5.4415,5.4415,5.4479,5.4475,5.4844,5.4519,5.4519,5.4518,5.4517,0,5.3318,5.347,5.3485,5.359,5.3759,5.3753,5.3921,5.3955,5.402,5.4131,5.4094,5.42,5.4204,5.4313,5.4321,5.449,5.4518,5.4532,5.4532,5.4536,5.4534,5.4577,5.456,5.4528,5.4526,5.4524,5.4522,0,5.3585,5.3601,5.3783,5.3853,5.3874,5.3995,5.4055,5.4156,5.4177,5.4319,5.4352,5.4387,5.4513,5.453,5.4679,5.4684,5.4887,5.4869,5.486,5.4858,5.4985,5.4973,5.5395,5.545,5.5089,5.5093,5.5096,0,5.3766,5.3881,5.3962,5.4034,5.4079,5.4195,5.4266,5.4265,5.4341,5.444,5.453,5.4652,5.475,5.4955,5.4995,5.5109,5.5093,5.5233,5.511,5.511,5.5096,5.5089,5.5101,5.5257,5.5261,5.5264,5.5267,0,5.4085,5.4088,5.4191,5.4298,5.4383,5.4468,5.4547,5.4609,5.4618,5.4706,5.4834,5.491,5.5061,5.5184,5.5297,5.5341,5.5307,5.5305,5.5341,5.5346,5.5336,5.5343,5.4925,5.5296,5.5293,5.5291,5.5289,5.5288,5.4315,5.4415,5.4488,5.4605,5.4664,5.4739,5.4837,5.487,5.4976,5.5098,5.5092,5.5234,5.5311,5.5458,5.5511,5.5623,5.5577,5.5629,5.5642,5.5655,5.5667,5.5318,5.5643,5.5642,5.5642,5.5641,5.564,0,5.4633,5.4677,5.4785,5.4896,5.4988,5.4946,5.5032,5.5113,5.5237,5.5311,5.5408,5.5556,5.5675,5.5724,5.5841,5.5921,5.5909,5.5952,5.5946,5.5958,5.5701,5.5659,5.596,5.596,5.596,5.596,5.596,5.596,5.4809,5.4976,5.4988,5.5185,5.5228,5.5365,5.5418,5.5488,5.5547,5.5713,5.5811,5.5841,5.5906,5.6028,5.6136,5.6147,5.6192,5.6243,5.6248,5.6008,5.5975,5.5945,5.5904,5.6253,5.6253,5.6494,5.6497,5.6498]},{"header":{"parameterUnit":"m.s-1","parameterCategory":1,"la1":30.2991,"la2":30.254,"lo1":-89.0895,"lo2":-89.0444,"dy":0.0017,"dx":0.0017,"nx":28,"ny":28,"refTime":"2023-04-30T15:00:00:Z","depth":0,"parameterNumber":3,"parameterNumberName":"V-component_of_WINDS"},"data":[0,0,0,0,0,0,0,0,0,0,0,0,0,0,0,0,0,0,0,0,0,0,0,0,0,0,0,0,0,0,0,0,0,0,0,0,0,0,0,0,0,0,0,0,0,0,0,0,0,0,0,0,0,0,0,0,0,0,-1.3762,-1.3763,0,-1.3839,-1.384,-1.3841,-1.3872,-1.3872,-1.3871,-1.3871,-1.395,-1.3953,-1.3955,0,0,0,0,0,0,0,0,0,0,0,0,0,-1.3642,-1.3645,-1.3762,-1.3763,-1.3764,-1.3839,-1.384,-1.3841,-1.3872,-1.3872,-1.3871,-1.3871,-1.395,-1.3952,-1.3955,0,0,0,0,0,0,0,0,0,0,0,0,0,-1.3704,-1.3645,-1.3762,-1.3788,-1.3792,-1.3839,-1.384,-1.3841,-1.3872,-1.3872,-1.3871,-1.3871,-1.3949,-1.3952,-1.3955,-1.3982,0,0,-1.3966,-1.3967,0,0,0,0,0,0,0,0,-1.3701,-1.3709,-1.3784,-1.3787,-1.379,-1.3846,-1.3827,-1.3889,-1.3872,-1.3841,-1.3871,-1.3871,-1.3916,-1.3922,-1.3937,-1.3986,-1.3989,-1.3966,-1.3968,-1.397,-1.3971,0,0,0,0,0,0,0,-1.3697,-1.3706,-1.3793,-1.3785,-1.3789,-1.3797,-1.3805,-1.3839,-1.3879,-1.3844,-1.3846,-1.3855,-1.3918,-1.3934,-1.3939,-1.3991,-1.3966,-1.3969,-1.3971,-1.3973,-1.4065,-1.4066,0,0,0,0,0,0,-1.3688,-1.3702,-1.379,-1.3795,-1.3744,-1.3799,-1.3809,-1.3828,-1.3879,-1.3886,-1.3855,-1.3856,-1.3928,-1.3935,-1.3942,-1.3977,-1.397,-1.3973,-1.3975,-1.4065,-1.4066,-1.4066,0,0,0,0,0,0,-1.3685,-1.3695,-1.3787,-1.3749,-1.3761,-1.3801,-1.3823,-1.383,-1.3846,-1.3887,-1.3895,-1.3864,-1.3928,-1.3937,-1.3972,-1.398,-1.3975,-1.3978,-1.4065,-1.4065,-1.4066,-1.4046,0,0,0,0,0,0,-1.3682,-1.3694,-1.3705,-1.3749,-1.3763,-1.3816,-1.3824,-1.3832,-1.3852,-1.3854,-1.3898,-1.3905,-1.3928,-1.3967,-1.3975,-1.3984,-1.398,-1.4064,-1.4065,-1.4066,-1.4046,-1.4046,-1.4046,0,0,0,0,0,-1.3677,-1.3696,-1.3705,-1.3716,-1.3777,-1.3816,-1.3824,-1.3851,-1.3852,-1.3863,-1.389,-1.3903,-1.3978,-1.397,-1.398,-1.399,-1.4064,-1.4065,-1.4066,-1.4046,-1.4046,-1.4046,0,0,0,0,0,0,-1.3652,-1.3703,-1.3713,-1.3747,-1.3777,-1.3821,-1.3836,-1.385,-1.388,-1.3881,-1.3913,-1.3922,-1.3955,-1.3976,-1.3967,-1.4019,-1.4022,-1.4025,-1.4004,-1.4004,-1.4003,-1.3997,-1.3983,0,0,0,0,0,-1.365,-1.3677,-1.372,-1.3746,-1.3761,-1.3795,-1.3813,-1.3831,-1.3864,-1.3877,-1.3906,-1.3937,-1.3968,-1.3987,-1.4017,-1.405,-1.406,-1.4062,-1.4061,-1.4061,-1.4063,-1.4082,-1.4083,-1.4069,-1.4069,-1.4069,0,0,-1.3647,-1.3678,-1.3693,-1.3742,-1.3767,-1.3795,-1.3806,-1.3835,-1.3855,-1.3881,-1.3916,-1.3938,-1.3975,-1.4009,-1.4025,-1.4028,-1.4069,-1.4062,-1.4061,-1.4064,-1.4083,-1.4084,-1.4085,-1.407,-1.407,-1.4069,0,0,-1.3655,-1.3682,-1.3706,-1.3731,-1.3769,-1.3792,-1.3798,-1.384,-1.3856,-1.3892,-1.3911,-1.3937,-1.3988,-1.4014,-1.4033,-1.4051,-1.4065,-1.406,-1.4059,-1.4077,-1.4078,-1.4079,-1.4085,-1.4087,-1.4062,-1.4062,-1.4062,0,-1.3647,-1.3689,-1.3717,-1.3744,-1.3765,-1.3789,-1.3814,-1.3837,-1.3884,-1.3897,-1.39,-1.3965,-1.3991,-1.4031,-1.4036,-1.4051,-1.4059,-1.4055,-1.4076,-1.4077,-1.4078,-1.4085,-1.4087,-1.4062,-1.4062,-1.4062,-1.4062,0,-1.3676,-1.3705,-1.372,-1.3764,-1.3786,-1.3812,-1.3844,-1.3864,-1.388,-1.3902,-1.3938,-1.3971,-1.4008,-1.4019,-1.4035,-1.4061,-1.4062,-1.4069,-1.4073,-1.4078,-1.4085,-1.4088,-1.406,-1.4061,-1.4061,-1.4061,0,0,-1.367,-1.3729,-1.3734,-1.3754,-1.3798,-1.3821,-1.3848,-1.3885,-1.3901,-1.3932,-1.3955,-1.3999,-1.4006,-1.4028,-1.4047,-1.4063,-1.4075,-1.4069,-1.407,-1.4069,-1.4106,-1.41,-1.4102,-1.4084,-1.4085,-1.4085,-1.4103,0,-1.3684,-1.3734,-1.376,-1.3798,-1.3825,-1.3849,-1.3873,-1.3902,-1.3924,-1.3951,-1.3976,-1.4005,-1.4013,-1.4027,-1.4043,-1.407,-1.4083,-1.4069,-1.4107,-1.4108,-1.4096,-1.4106,-1.4099,-1.4114,-1.4106,-1.4106,-1.4106,0,-1.3707,-1.3738,-1.3779,-1.3819,-1.3832,-1.3853,-1.3888,-1.3913,-1.3947,-1.3962,-1.3987,-1.4006,-1.4035,-1.4037,-1.4078,-1.4068,-1.4085,-1.4101,-1.4102,-1.4107,-1.4107,-1.411,-1.4119,-1.4121,-1.4111,-1.411,-1.411,0,-1.3699,-1.375,-1.3781,-1.3798,-1.3846,-1.386,-1.3881,-1.3915,-1.3935,-1.3966,-1.3979,-1.4013,-1.4032,-1.4058,-1.4086,-1.4084,-1.4125,-1.4128,-1.4138,-1.4137,-1.4145,-1.4144,-1.4157,-1.4157,-1.4157,-1.4156,-1.4156,0,-1.3711,-1.3735,-1.3778,-1.3797,-1.3825,-1.3855,-1.3881,-1.3904,-1.3934,-1.3958,-1.3981,-1.4003,-1.4038,-1.4065,-1.4087,-1.4118,-1.4126,-1.414,-1.4145,-1.4137,-1.4136,-1.4149,-1.4148,-1.4157,-1.4157,-1.4157,-1.4157,0,-1.3706,-1.3736,-1.3771,-1.3814,-1.3825,-1.3844,-1.3881,-1.39,-1.3924,-1.3954,-1.3963,-1.4,-1.4032,-1.4062,-1.4106,-1.4121,-1.4152,-1.4159,-1.414,-1.4143,-1.4151,-1.415,-1.4173,-1.4177,-1.4173,-1.4173,-1.4173,0,-1.3712,-1.3731,-1.3776,-1.3794,-1.3814,-1.3842,-1.3863,-1.3893,-1.3914,-1.3954,-1.3969,-1.4003,-1.4032,-1.4083,-1.4114,-1.4147,-1.4155,-1.4161,-1.416,-1.4152,-1.4155,-1.4154,-1.4156,-1.416,-1.416,-1.416,-1.416,0,-1.372,-1.3733,-1.3762,-1.3796,-1.382,-1.3848,-1.3877,-1.389,-1.3925,-1.3947,-1.3981,-1.4003,-1.4048,-1.4081,-1.4118,-1.414,-1.4156,-1.416,-1.4164,-1.4156,-1.4144,-1.4151,-1.4139,-1.4159,-1.4159,-1.4159,-1.4159,-1.416,-1.3721,-1.3739,-1.3773,-1.3804,-1.3829,-1.3855,-1.3876,-1.3901,-1.393,-1.3968,-1.3984,-1.4018,-1.4052,-1.4103,-1.4125,-1.4152,-1.4156,-1.4161,-1.4163,-1.4164,-1.4162,-1.414,-1.4159,-1.4159,-1.4159,-1.4159,-1.4159,0,-1.3729,-1.3752,-1.3781,-1.382,-1.3845,-1.3857,-1.389,-1.391,-1.3939,-1.3969,-1.3997,-1.4036,-1.4068,-1.4102,-1.4137,-1.4152,-1.416,-1.416,-1.4159,-1.4164,-1.4157,-1.415,-1.4153,-1.4153,-1.4153,-1.4153,-1.4153,-1.4153,-1.3736,-1.3767,-1.3785,-1.3829,-1.3852,-1.3885,-1.3902,-1.3927,-1.3951,-1.3993,-1.402,-1.4042,-1.4073,-1.4111,-1.4142,-1.4151,-1.4162,-1.416,-1.4171,-1.4164,-1.4164,-1.4165,-1.4158,-1.4162,-1.4162,-1.4176,-1.4176,-1.4176]}]]